Temperature
17 16 16 16 16 15 16 16 16 16 16 15 15 15 15 15 14 14 14 14 14 14 14 14 14 14 13 13 13 13 13 12 12 13 12 12 12 12 12 12 12 12 12
19 17 16 16 15 15 15 15 16 15 15 15 15 15 14 14 14 14 14 14 14 13 13 13 13 13 13 13 12 12 12 12 12 12 12 12 12 12 12 12 12 11 12
18 17 16 15 15 15 15 15 15 15 15 15 14 14 14 14 13 13 13 13 13 13 13 13 13 13 13 12 12 12 12 12 12 12 12 12 11 11 11 11 11 11 11
18 17 16 15 15 15 15 15 15 15 14 14 14 13 13 13 13 13 12 12 12 12 12 12 12 12 12 12 12 11 11 12 12 12 11 11 11 11 11 11 11 11 11
17 16 16 15 15 15 15 15 15 14 14 14 13 13 13 13 12 12 12 12 12 12 12 12 12 12 12 12 12 11 11 12 12 11 11 11 10 10 10 11 11 11 11
17 16 16 15 15 15 15 15 14 14 14 13 13 13 12 12 12 12 12 12 12 12 12 12 12 12 12 12 11 11 11 11 11 11 11 11 10 10 10 10 10 10 10
17 16 15 15 15 15 15 15 14 14 13 13 13 12 12 12 11 12 12 12 12 11 11 12 12 12 12 12 11 11 11 11 11 11 11 10 10 10 9 9 10 10 10
17 16 15 15 15 15 14 14 14 14 13 13 12 12 12 12 12 12 11 11 11 11 12 12 12 12 12 11 11 11 11 11 11 11 11 10 10 9 9 9 9 9 9
16 15 14 14 14 14 14 14 14 13 13 13 12 12 12 12 12 11 11 11 11 12 12 12 12 12 12 11 11 11 11 11 11 11 10 10 9 9 9 9 9 9 9
15 15 14 14 14 14 14 14 14 13 13 13 12 12 12 12 12 12 12 11 11 12 12 12 12 12 11 11 11 11 11 11 10 10 10 10 9 9 9 9 9 9 9
14 14 14 14 14 14 14 14 13 13 13 13 12 12 12 12 12 12 12 12 11 12 12 12 11 11 11 11 11 11 11 10 10 10 10 10 9 9 9 9 9 9 8
14 14 14 14 14 14 14 13 13 13 13 13 12 12 12 12 12 12 11 11 11 12 11 11 11 11 11 11 11 11 10 10 10 10 10 10 9 9 9 9 9 9 8
15 14 14 14 14 14 14 13 13 13 13 12 12 12 12 12 12 11 11 11 11 11 11 11 11 11 11 10 10 10 10 10 10 10 10 10 10 9 9 9 9 9 8
15 14 14 14 14 14 14 14 13 13 13 13 12 12 12 12 12 12 11 11 11 11 11 11 11 11 10 10 10 10 10 10 10 10 10 10 10 9 9 9 9 8 8
15 15 14 14 14 14 14 14 13 13 13 13 12 12 12 12 12 12 11 11 11 11 11 11 11 10 10 10 10 10 10 10 10 10 10 10 10 9 9 9 9 8 8
15 15 15 14 14 14 14 14 14 13 13 13 13 12 12 12 12 12 11 11 11 11 11 11 10 10 10 10 10 10 10 10 10 10 10 10 10 10 9 9 9 8 8
16 15 15 15 14 14 14 14 14 13 13 13 13 12 12 12 12 12 11 11 11 11 10 10 10 10 10 10 10 10 10 10 10 10 10 10 10 10 9 9 9 9 8
16 15 15 15 14 14 14 14 14 13 13 13 13 12 12 12 12 11 11 11 11 10 10 10 10 10 10 10 10 10 10 10 10 10 10 10 10 10 9 9 9 9 8
16 16 15 15 15 15 14 14 14 13 13 13 13 12 12 12 11 11 11 11 11 10 10 10 10 10 10 10 10 10 9 10 10 10 10 10 10 10 9 9 9 9 8
16 16 16 15 15 15 14 14 13 13 13 13 13 13 12 12 12 11 11 11 11 10 10 10 10 10 10 9 9 9 9 9 9 9 9 9 10 9 9 9 9 8 8
16 16 15 15 15 14 14 14 14 13 13 13 13 13 12 12 12 12 11 11 11 11 10 10 10 9 9 9 9 9 9 9 9 9 9 9 9 9 9 9 8 8 8
17 16 16 16 15 15 15 15 15 14 14 13 13 13 12 12 12 12 11 11 11 10 10 10 10 10 9 9 9 9 9 9 9 9 9 9 9 9 9 8 8 8 8
17 17 16 16 16 16 15 15 14 13 12 12 12 13 13 12 12 12 12 11 11 11 10 10 10 10 10 9 9 9 9 9 9 9 9 9 9 9 8 8 8 8 7
18 18 17 17 17 16 15 15 14 14 14 14 14 14 13 12 12 12 12 11 11 11 10 10 10 10 10 9 9 9 9 9 9 8 9 9 9 8 8 8 8 7 7
18 18 18 17 17 16 16 15 15 15 15 15 14 13 13 12 12 12 11 11 11 11 11 10 10 10 10 9 9 9 9 8 8 8 8 9 9 8 8 8 7 7 7
18 18 18 17 17 17 16 15 15 15 15 14 14 13 13 12 12 12 11 11 11 11 11 10 10 10 10 9 9 9 9 9 9 8 8 8 8 8 8 8 7 7 6
Wind_Speed
12 17 27 26 25 24 23 22 22 22 21 21 21 20 20 19 19 19 19 18 18 18 18 19 18 18 18 18 18 18 18 18 18 18 17 17 17 16 16 15 15 14 16
17 23 28 27 26 25 24 23 23 22 22 21 21 20 20 19 19 19 19 18 18 18 18 18 17 17 17 17 17 17 17 17 17 17 16 15 15 16 16 16 15 14 15
20 23 28 28 26 26 25 24 23 22 22 22 21 20 20 19 19 18 18 18 18 18 18 17 17 17 16 16 16 16 16 17 17 17 15 13 13 16 16 16 16 16 16
22 22 25 28 27 26 26 25 24 23 22 22 21 20 20 19 19 18 18 18 17 17 17 16 16 16 15 15 15 16 17 17 17 16 14 13 12 15 16 16 16 16 16
19 21 25 29 28 27 26 25 24 23 22 22 21 20 20 19 19 18 17 17 17 17 16 16 15 15 15 15 15 16 17 17 17 15 14 13 12 14 15 15 15 15 16
17 20 26 29 28 27 26 25 24 24 23 22 21 20 20 19 19 18 17 17 16 16 16 15 15 15 14 14 15 15 16 17 15 14 13 12 11 14 14 14 14 15 15
17 19 25 29 28 27 26 25 25 24 23 22 21 20 19 19 18 18 17 17 16 16 15 15 14 14 14 13 14 15 15 15 14 12 11 10 11 14 14 14 14 15 15
18 18 23 28 28 27 26 26 25 24 23 22 21 20 20 19 18 17 17 16 16 16 15 14 14 13 13 13 13 13 13 13 11 10 10 9 11 12 13 13 14 14 14
17 16 17 22 25 26 26 25 25 24 23 23 22 21 20 19 18 17 16 16 15 15 14 13 13 12 12 12 12 12 12 12 11 9 8 8 11 12 12 12 12 13 13
14 13 14 17 20 21 22 24 24 24 23 22 21 21 20 19 18 17 16 15 15 14 13 12 12 11 11 10 11 11 12 12 11 9 8 8 10 11 11 11 11 11 12
16 14 14 14 15 17 19 22 23 23 22 22 21 21 18 16 16 15 15 15 14 13 12 11 10 9 8 8 9 10 10 10 9 8 6 8 9 10 10 10 10 10 11
21 18 15 14 15 16 17 18 18 18 19 19 18 18 16 15 15 14 15 14 13 12 11 10 9 7 6 6 7 8 9 9 8 6 6 8 8 8 8 8 9 9 9
22 20 18 16 16 14 11 14 13 14 16 17 18 18 16 14 13 12 12 12 11 10 8 7 6 5 4 5 6 7 9 8 8 6 6 7 7 7 7 7 7 7 7
21 21 19 17 16 14 13 11 11 11 11 12 16 18 15 10 9 9 9 9 9 8 6 5 4 3 4 5 7 7 8 8 7 6 5 6 5 5 5 5 5 6 6
21 21 20 18 17 15 13 11 12 11 11 14 16 17 17 10 8 8 8 9 9 8 6 5 4 4 4 5 6 7 6 6 7 6 5 5 4 4 3 3 4 4 4
22 21 20 20 18 16 13 11 11 12 13 15 15 17 18 15 11 9 7 7 8 9 8 7 6 5 4 4 4 5 6 6 6 6 5 4 3 3 2 2 2 2 2
22 21 21 21 20 18 16 14 13 13 14 12 14 18 19 17 15 11 7 6 9 11 9 7 5 5 3 3 3 3 4 4 5 5 5 4 3 3 2 1 0 1 1
20 21 22 20 21 20 16 14 12 13 13 12 15 17 19 19 18 13 8 7 11 10 8 4 4 3 3 2 2 1 2 3 4 5 5 5 4 4 3 3 2 2 3
21 22 23 21 22 21 17 14 12 13 13 13 15 15 18 19 19 14 9 8 12 8 5 5 3 4 3 2 2 1 1 2 3 4 4 5 6 6 5 5 4 4 4
20 21 22 21 21 19 15 11 10 11 11 12 13 15 18 18 19 15 10 10 11 6 5 5 5 3 3 3 2 0 1 2 2 3 4 5 6 7 7 6 5 5 6
20 21 22 21 20 18 16 15 15 14 13 12 11 15 18 18 18 14 9 9 8 7 7 7 4 4 2 3 2 2 3 2 2 2 3 3 4 6 6 7 7 7 7
23 24 24 23 23 22 18 16 13 11 9 10 9 12 18 18 18 15 11 10 9 7 7 7 5 4 2 3 3 2 2 4 3 2 2 3 3 4 5 7 7 8 9
24 25 24 25 24 23 18 12 9 7 6 7 11 12 14 18 18 15 13 11 10 9 9 8 7 7 5 3 3 4 3 4 3 3 3 3 3 3 4 5 7 8 9
24 25 25 26 25 23 20 18 18 15 14 14 12 11 11 15 16 16 14 13 11 9 9 9 8 5 6 4 3 2 3 3 3 2 3 3 3 4 4 4 6 7 8
23 23 23 24 24 23 22 22 21 16 13 8 8 11 12 12 14 15 15 13 11 9 10 9 8 7 6 5 4 3 2 1 2 3 4 4 3 4 4 4 5 6 7
19 20 21 23 24 24 24 23 23 20 15 13 13 14 13 10 11 13 14 13 12 10 10 10 9 9 7 6 5 4 4 3 4 3 4 4 4 4 3 3 3 4 6
Wind_Direction
168 167 160 155 151 147 143 139 136 134 131 128 125 121 118 116 114 113 110 108 104 101 98 96 95 94 93 92 91 89 85 82 77 75 72 72 72 69 66 63 59 54 56
156 163 159 156 152 148 145 141 137 135 133 130 127 125 122 119 116 115 112 109 106 103 101 99 97 97 96 95 94 90 86 84 81 76 69 65 71 71 67 62 59 57 55
154 159 157 156 153 149 146 142 139 137 134 132 130 128 126 122 119 116 114 111 108 105 102 101 100 99 98 96 93 90 87 86 85 79 66 52 63 71 67 61 59 58 56
154 156 157 156 153 150 147 144 142 140 137 134 132 131 129 126 122 119 115 113 110 108 106 104 103 102 100 97 92 89 89 88 88 79 60 50 56 67 65 61 59 57 54
153 155 157 155 153 150 149 147 145 143 140 138 136 134 131 128 125 122 119 116 115 112 110 108 107 106 102 96 92 90 90 89 88 77 63 54 55 68 66 62 60 58 54
152 154 158 155 153 152 151 149 148 146 143 141 139 137 134 131 128 124 122 121 119 116 114 112 110 108 104 99 94 92 91 91 86 75 65 57 60 69 68 62 61 58 56
153 155 158 156 155 154 153 151 150 148 146 144 142 140 138 135 130 127 125 125 124 122 119 116 113 110 106 100 96 94 94 92 85 75 65 60 67 70 67 63 63 60 58
154 155 159 158 156 156 155 153 152 150 149 147 146 143 141 138 135 133 131 129 126 122 120 117 115 113 109 102 96 95 96 92 88 78 69 63 73 71 70 67 63 61 60
153 156 157 158 158 158 157 155 155 153 152 150 149 146 143 142 140 138 135 132 128 126 123 121 118 116 111 102 96 95 95 95 94 87 74 67 75 75 73 69 65 64 61
155 158 156 155 157 158 157 157 156 155 154 153 150 146 145 145 143 141 139 137 133 131 128 125 122 118 110 101 96 96 98 97 95 89 78 78 80 78 74 71 68 67 64
162 162 158 155 155 155 156 159 157 156 155 152 150 148 145 143 141 141 143 141 139 137 134 131 128 121 110 99 95 98 100 100 99 89 82 87 84 81 78 75 73 70 65
170 169 165 160 158 157 160 158 157 156 155 151 151 149 145 143 143 145 149 148 147 144 140 138 137 128 108 95 93 101 109 109 105 96 93 92 86 84 82 81 76 72 66
171 170 169 165 162 161 159 158 157 155 154 154 154 152 150 148 149 150 152 152 150 148 144 140 130 125 120 116 110 113 119 118 117 107 105 100 92 89 87 85 79 73 67
172 174 171 168 167 165 161 163 160 159 161 162 162 159 155 152 154 157 157 158 157 158 156 150 149 153 145 138 127 126 126 128 131 123 116 111 103 96 92 89 81 74 66
175 175 174 172 171 168 165 168 168 166 168 168 168 168 164 161 164 165 167 167 170 172 169 165 168 164 152 140 131 133 136 137 140 138 132 124 117 114 102 94 83 68 61
178 177 176 176 175 171 172 173 172 172 173 173 175 175 172 170 171 170 170 174 181 183 179 174 170 161 153 140 128 134 140 147 150 151 150 145 142 138 127 111 82 48 41
180 178 178 178 177 176 176 176 175 177 176 179 181 180 177 176 174 173 172 177 186 184 175 164 154 144 135 124 119 132 146 160 164 165 167 166 172 179 187 191 223 318 325
179 179 180 180 180 180 179 178 177 180 181 183 183 182 181 180 177 172 173 181 183 174 165 151 145 134 131 129 136 153 157 170 182 185 182 187 192 202 215 234 246 273 287
183 181 181 181 182 182 180 178 177 180 183 185 185 184 184 183 180 174 175 181 176 164 160 160 150 144 146 152 162 171 202 195 197 194 195 201 205 210 220 235 245 261 277
186 183 183 182 182 180 177 174 175 180 185 186 186 185 183 184 181 176 174 176 170 162 163 160 152 142 150 158 140 72 291 262 217 208 212 211 212 215 220 229 241 254 264
187 185 184 183 181 179 181 182 184 188 188 188 189 186 185 184 181 178 176 173 171 173 172 163 150 149 153 138 98 9 335 327 266 239 221 215 224 225 223 228 238 248 260
190 189 188 187 184 185 188 189 187 180 182 185 184 187 188 185 183 184 177 178 176 171 169 169 155 151 165 156 139 116 325 325 311 275 244 229 235 235 235 237 241 246 252
193 191 191 190 188 188 185 176 161 153 157 179 191 193 193 188 186 185 181 178 178 177 181 181 171 164 174 193 169 153 167 230 282 303 268 249 241 240 248 246 246 248 251
196 193 193 191 190 189 183 181 179 184 191 196 191 190 188 189 188 187 183 181 181 182 183 185 181 171 164 183 200 197 179 167 180 283 303 285 262 249 250 250 252 254 257
196 193 193 191 191 189 187 187 188 193 196 180 173 179 187 191 190 189 186 185 185 187 187 185 181 180 177 178 180 174 175 170 172 188 260 289 294 264 248 246 249 255 259
196 192 191 191 192 189 189 190 192 193 187 175 181 187 190 191 192 192 189 189 189 189 190 188 186 184 187 182 183 177 172 179 195 187 223 251 269 280 268 251 245 251 262
Height
1492 1497 1501 1505 1508 1511 1513 1515 1517 1519 1520 1522 1523 1525 1526 1527 1528 1529 1530 1530 1531 1532 1532 1533 1533 1533 1534 1534 1534 1534 1534 1534 1534 1534 1534 1534 1533 1532 1532 1531 1531 1530 1530
1488 1494 1499 1503 1507 1510 1512 1514 1516 1518 1520 1521 1523 1524 1526 1527 1528 1529 1530 1531 1531 1532 1532 1533 1533 1534 1534 1534 1535 1535 1535 1535 1535 1535 1535 1535 1534 1534 1533 1532 1532 1531 1530
1488 1493 1498 1502 1505 1508 1511 1514 1516 1518 1519 1521 1523 1524 1526 1527 1528 1529 1530 1531 1531 1532 1533 1533 1534 1534 1534 1535 1535 1536 1536 1536 1536 1536 1536 1535 1535 1535 1534 1533 1533 1532 1531
1488 1492 1496 1501 1504 1507 1510 1513 1515 1517 1519 1521 1522 1524 1525 1527 1528 1529 1530 1531 1531 1532 1533 1533 1534 1534 1535 1536 1536 1536 1536 1536 1536 1537 1537 1536 1536 1536 1535 1534 1534 1533 1532
1487 1491 1495 1500 1503 1507 1509 1512 1514 1516 1518 1520 1522 1524 1525 1527 1528 1529 1530 1530 1531 1532 1533 1534 1534 1535 1536 1536 1537 1537 1537 1537 1537 1537 1537 1537 1537 1537 1536 1535 1534 1534 1533
1487 1491 1495 1499 1502 1506 1509 1511 1514 1516 1518 1520 1522 1524 1525 1526 1527 1528 1529 1530 1531 1532 1533 1534 1535 1536 1536 1537 1538 1538 1538 1538 1538 1538 1538 1538 1538 1538 1537 1536 1535 1534 1534
1485 1490 1494 1498 1502 1505 1508 1510 1513 1515 1517 1519 1521 1523 1525 1526 1527 1528 1529 1531 1532 1533 1534 1535 1536 1536 1537 1538 1538 1539 1539 1539 1539 1539 1539 1539 1539 1538 1537 1536 1536 1535 1534
1485 1490 1494 1498 1501 1504 1507 1510 1512 1515 1517 1519 1521 1522 1524 1525 1527 1528 1529 1531 1532 1534 1534 1536 1536 1537 1538 1539 1539 1540 1540 1540 1540 1540 1540 1540 1540 1539 1538 1537 1537 1536 1535
1486 1489 1493 1497 1500 1504 1507 1509 1512 1514 1516 1518 1520 1522 1524 1525 1527 1528 1530 1531 1533 1534 1535 1536 1537 1538 1539 1540 1540 1540 1541 1541 1541 1541 1541 1541 1540 1540 1539 1538 1537 1536 1535
1485 1489 1492 1496 1499 1502 1506 1508 1511 1514 1516 1518 1520 1522 1523 1525 1527 1528 1530 1532 1533 1534 1536 1537 1538 1539 1540 1540 1541 1541 1541 1542 1542 1542 1541 1541 1541 1540 1540 1539 1538 1537 1536
1485 1488 1491 1494 1498 1501 1504 1507 1510 1513 1515 1517 1519 1521 1523 1525 1527 1529 1530 1532 1533 1535 1536 1537 1539 1539 1540 1541 1541 1542 1542 1542 1542 1542 1542 1542 1542 1541 1540 1539 1538 1538 1537
1480 1485 1489 1492 1496 1499 1503 1506 1509 1512 1514 1517 1519 1521 1523 1525 1527 1529 1530 1532 1534 1535 1537 1538 1539 1540 1541 1541 1542 1542 1543 1543 1543 1543 1543 1542 1542 1541 1541 1540 1539 1538 1537
1476 1481 1486 1490 1494 1497 1500 1504 1507 1510 1513 1515 1518 1520 1522 1524 1526 1528 1530 1532 1534 1535 1537 1538 1539 1540 1541 1542 1542 1543 1543 1543 1543 1543 1543 1543 1542 1542 1541 1540 1540 1539 1538
1474 1478 1483 1487 1491 1495 1499 1502 1505 1508 1511 1514 1516 1519 1521 1523 1525 1528 1530 1532 1533 1535 1536 1538 1539 1540 1541 1542 1543 1543 1543 1544 1544 1544 1543 1543 1543 1542 1541 1541 1540 1539 1538
1471 1475 1480 1484 1488 1492 1496 1500 1503 1506 1509 1512 1515 1517 1520 1522 1524 1527 1529 1531 1533 1535 1536 1538 1539 1540 1541 1542 1543 1543 1543 1544 1544 1544 1543 1543 1543 1542 1542 1541 1540 1539 1538
1468 1472 1477 1481 1486 1490 1494 1497 1501 1504 1507 1510 1513 1516 1518 1521 1523 1526 1528 1530 1532 1534 1536 1537 1539 1540 1541 1542 1542 1543 1543 1544 1543 1543 1543 1543 1542 1542 1541 1541 1540 1539 1538
1464 1469 1474 1478 1483 1487 1491 1495 1499 1502 1505 1508 1511 1514 1517 1519 1522 1525 1527 1529 1531 1533 1535 1536 1538 1539 1540 1541 1542 1543 1543 1543 1543 1543 1543 1542 1542 1541 1541 1540 1539 1538 1537
1461 1465 1470 1475 1480 1484 1488 1493 1496 1500 1503 1506 1509 1512 1515 1518 1520 1523 1525 1527 1530 1532 1534 1535 1537 1538 1539 1540 1541 1542 1542 1542 1542 1542 1542 1541 1541 1540 1540 1539 1538 1537 1536
1457 1461 1466 1471 1475 1480 1485 1490 1494 1497 1501 1504 1507 1510 1513 1516 1518 1521 1523 1526 1528 1530 1532 1534 1536 1537 1538 1539 1540 1541 1541 1541 1541 1541 1540 1540 1540 1539 1539 1538 1537 1536 1535
1453 1458 1462 1467 1472 1477 1482 1487 1491 1495 1498 1501 1504 1507 1510 1513 1516 1519 1521 1524 1526 1528 1530 1532 1534 1536 1537 1538 1539 1539 1540 1539 1539 1539 1539 1539 1538 1538 1537 1536 1535 1534 1533
1449 1453 1458 1462 1467 1472 1477 1481 1485 1488 1492 1497 1500 1504 1507 1510 1513 1516 1519 1521 1524 1526 1528 1530 1532 1534 1535 1536 1537 1538 1538 1537 1537 1537 1537 1537 1536 1536 1535 1534 1533 1532 1531
1442 1447 1452 1456 1461 1466 1470 1474 1479 1484 1489 1493 1497 1501 1504 1507 1510 1513 1515 1518 1521 1523 1525 1528 1529 1531 1533 1534 1535 1535 1535 1536 1535 1535 1534 1534 1534 1534 1533 1532 1531 1530 1528
1435 1439 1444 1449 1454 1460 1465 1471 1477 1483 1487 1490 1493 1495 1499 1503 1506 1509 1512 1515 1518 1520 1522 1524 1527 1528 1529 1531 1532 1533 1533 1532 1532 1532 1532 1532 1531 1531 1530 1529 1528 1527 1525
1427 1432 1437 1443 1448 1453 1459 1464 1469 1472 1476 1479 1484 1489 1494 1498 1502 1505 1509 1511 1514 1517 1519 1522 1524 1525 1527 1528 1529 1530 1531 1531 1530 1529 1530 1529 1529 1528 1527 1526 1525 1523 1521
1420 1425 1431 1436 1441 1447 1452 1457 1462 1466 1471 1476 1481 1486 1490 1494 1498 1501 1505 1508 1510 1513 1516 1518 1520 1522 1524 1525 1526 1527 1527 1528 1528 1527 1526 1526 1525 1525 1524 1522 1521 1519 1518
1413 1418 1423 1429 1434 1440 1445 1450 1455 1460 1465 1470 1475 1480 1484 1489 1493 1496 1500 1503 1506 1509 1511 1514 1517 1518 1520 1522 1523 1523 1524 1524 1524 1524 1523 1522 1521 1521 1520 1519 1517 1515 1514